DLH9CP LIRF-EDDF

Flight info

Callsign DLH9CP
Flight time 1h 32m
Altitude 30000
Route SOVAN DCT AMTEL DCT GIKEB DCT EKPEB DCT BRENO DCT KONIN DCT ERNAS T161 DEBHI DEBHI1B
Aircraft A321/M-SDE3FGHIRWY/LB1

Departure

Time 2026-04-14 08:46
Airport Rome–Fiumicino Leonardo da Vinci International Airport (LIRF)

Arrival

Time 2026-04-14 10:18
Airport Frankfurt Main Airport (EDDF)
Time Latitude Longitude Altitude Speed Heading
2026-04-14 08:14 41.79799 12.25521 15 ft 0 kts 116°
2026-04-14 08:38 41.79802 12.25514 15 ft 4 kts 114°
2026-04-14 08:38 41.79809 12.25480 15 ft 4 kts 83°
2026-04-14 08:39 41.79799 12.25451 15 ft 4 kts 34°
2026-04-14 08:39 41.79788 12.25442 17 ft 1 kts 25°
2026-04-14 08:39 41.79787 12.25442 17 ft 0 kts 25°
2026-04-14 08:41 41.79803 12.25452 15 ft 9 kts 27°
2026-04-14 08:41 41.79882 12.25500 15 ft 14 kts 24°
2026-04-14 08:42 41.79973 12.25556 15 ft 15 kts 26°
2026-04-14 08:42 41.80035 12.25514 15 ft 11 kts 294°
2026-04-14 08:42 41.80069 12.25415 15 ft 12 kts 295°
2026-04-14 08:42 41.80136 12.25373 15 ft 12 kts 15°
2026-04-14 08:43 41.80219 12.25413 15 ft 14 kts 21°
2026-04-14 08:43 41.80310 12.25466 15 ft 14 kts 40°
2026-04-14 08:43 41.80352 12.25598 15 ft 19 kts 69°
2026-04-14 08:43 41.80417 12.25831 17 ft 31 kts 71°
2026-04-14 08:44 41.80492 12.26106 15 ft 32 kts 70°
2026-04-14 08:44 41.80571 12.26382 15 ft 32 kts 68°
2026-04-14 08:44 41.80646 12.26661 15 ft 32 kts 70°
2026-04-14 08:44 41.80720 12.26929 15 ft 24 kts 69°
2026-04-14 08:45 41.80812 12.27038 15 ft 18 kts 348°
2026-04-14 08:45 41.80931 12.26981 15 ft 19 kts 338°
2026-04-14 08:45 41.80939 12.26858 14 ft 17 kts 250°
2026-04-14 08:45 41.80814 12.26407 18 ft 90 kts 250°
2026-04-14 08:46 41.80514 12.25320 17 ft 155 kts 249°
2026-04-14 08:46 41.80116 12.23847 463 ft 171 kts 247°
2026-04-14 08:46 41.79688 12.22358 1222 ft 171 kts 243°
2026-04-14 08:46 41.79113 12.20970 1701 ft 178 kts 220°
2026-04-14 08:47 41.78043 12.19980 1924 ft 198 kts 209°
2026-04-14 08:47 41.76796 12.18911 2129 ft 222 kts 209°
2026-04-14 08:47 41.75442 12.17746 2558 ft 243 kts 210°
2026-04-14 08:47 41.74001 12.16495 3275 ft 250 kts 210°
2026-04-14 08:48 41.72529 12.15212 4073 ft 254 kts 211°
2026-04-14 08:48 41.71048 12.13902 4910 ft 257 kts 214°
2026-04-14 08:48 41.69894 12.12057 5632 ft 268 kts 246°
2026-04-14 08:48 41.69712 12.09566 6391 ft 278 kts 279°
2026-04-14 08:49 41.70614 12.07261 7105 ft 288 kts 313°
2026-04-14 08:49 41.72351 12.05911 7836 ft 296 kts 346°
2026-04-14 08:49 41.74409 12.05782 8604 ft 299 kts
2026-04-14 08:49 41.76483 12.06140 9365 ft 302 kts
2026-04-14 08:50 41.78579 12.06524 10103 ft 306 kts
2026-04-14 08:50 41.80765 12.06926 10362 ft 328 kts
2026-04-14 08:50 41.83108 12.07250 10585 ft 347 kts
2026-04-14 08:50 41.85551 12.07242 11104 ft 354 kts 356°
2026-04-14 08:51 41.88018 12.07031 11763 ft 357 kts 354°
2026-04-14 08:51 41.90502 12.06736 12419 ft 360 kts 353°
2026-04-14 08:51 41.93011 12.06431 13072 ft 364 kts 354°
2026-04-14 08:51 41.95547 12.06156 13730 ft 367 kts 354°
2026-04-14 08:52 41.98103 12.05902 14319 ft 370 kts 354°
2026-04-14 08:52 42.00686 12.05642 14872 ft 374 kts 354°
2026-04-14 08:52 42.03298 12.05379 15420 ft 378 kts 354°
2026-04-14 08:52 42.05928 12.05117 16014 ft 380 kts 355°
2026-04-14 08:53 42.08576 12.04858 16601 ft 383 kts 355°
2026-04-14 08:53 42.11251 12.04598 17104 ft 388 kts 355°
2026-04-14 08:53 42.13952 12.04336 17702 ft 391 kts 355°
2026-04-14 08:53 42.16666 12.04073 18372 ft 392 kts 354°
2026-04-14 08:54 42.19388 12.03678 18804 ft 395 kts 349°
2026-04-14 08:54 42.22110 12.03070 19278 ft 398 kts 349°
2026-04-14 08:54 42.24850 12.02453 19784 ft 400 kts 349°
2026-04-14 08:54 42.27608 12.01829 20259 ft 403 kts 349°
2026-04-14 08:55 42.30388 12.01201 20708 ft 407 kts 349°
2026-04-14 08:55 42.33191 12.00570 21148 ft 410 kts 350°
2026-04-14 08:55 42.36012 11.99937 21612 ft 412 kts 350°
2026-04-14 08:55 42.38851 11.99299 22066 ft 415 kts 350°
2026-04-14 08:56 42.41711 11.98653 22523 ft 418 kts 350°
2026-04-14 08:56 42.44588 11.98000 22954 ft 421 kts 350°
2026-04-14 08:56 42.47486 11.97344 23387 ft 424 kts 350°
2026-04-14 08:56 42.50404 11.96687 23753 ft 427 kts 350°
2026-04-14 08:57 42.53343 11.96026 24135 ft 429 kts 350°
2026-04-14 08:57 42.56298 11.95361 24515 ft 431 kts 350°
2026-04-14 08:57 42.59264 11.94693 24898 ft 433 kts 350°
2026-04-14 08:57 42.62244 11.94015 25281 ft 435 kts 350°
2026-04-14 08:58 42.65241 11.93330 25672 ft 437 kts 350°
2026-04-14 08:58 42.68247 11.92639 26048 ft 439 kts 350°
2026-04-14 08:58 42.71272 11.91947 26415 ft 442 kts 350°
2026-04-14 08:58 42.74310 11.91255 26784 ft 444 kts 350°
2026-04-14 08:59 42.77322 11.90570 27138 ft 446 kts 350°
2026-04-14 08:59 42.80387 11.89869 27498 ft 448 kts 349°
2026-04-14 08:59 42.83410 11.88814 27834 ft 450 kts 340°
2026-04-14 08:59 42.86289 11.87124 28160 ft 451 kts 330°
2026-04-14 09:00 42.89051 11.85086 28528 ft 453 kts 330°
2026-04-14 09:00 42.91833 11.83043 28829 ft 456 kts 330°
2026-04-14 09:00 42.94636 11.80993 29154 ft 458 kts 330°
2026-04-14 09:00 42.97454 11.78940 29478 ft 461 kts 330°
2026-04-14 09:01 43.00286 11.76873 29815 ft 463 kts 330°
2026-04-14 09:01 43.03116 11.74800 29890 ft 455 kts 330°
2026-04-14 09:01 43.05854 11.72792 29895 ft 441 kts 330°
2026-04-14 09:01 43.08540 11.70816 29895 ft 437 kts 330°
2026-04-14 09:02 43.13876 11.66881 29905 ft 435 kts 330°
2026-04-14 09:02 43.19248 11.63019 29897 ft 437 kts 336°
2026-04-14 09:03 43.25085 11.60986 29904 ft 438 kts 355°
2026-04-14 09:03 43.31214 11.60916 29901 ft 447 kts 360°
2026-04-14 09:04 43.34365 11.60931 29908 ft 458 kts 360°
2026-04-14 09:04 43.37587 11.60943 29909 ft 467 kts 360°
2026-04-14 09:04 43.44207 11.60955 29913 ft 483 kts 359°
2026-04-14 09:05 43.50983 11.60975 29906 ft 489 kts 359°
2026-04-14 09:05 43.57790 11.61002 29909 ft 489 kts 359°
2026-04-14 09:06 43.64598 11.61032 29916 ft 489 kts 359°
2026-04-14 09:06 43.71397 11.61056 29913 ft 488 kts 359°
2026-04-14 09:07 43.78191 11.61081 29923 ft 489 kts 359°
2026-04-14 09:07 43.85001 11.61108 29941 ft 489 kts 359°
2026-04-14 09:08 43.91797 11.61139 29951 ft 488 kts 359°
2026-04-14 09:08 43.98575 11.61173 29956 ft 487 kts 359°
2026-04-14 09:09 44.05348 11.61199 29967 ft 486 kts
2026-04-14 09:09 44.12092 11.61217 29975 ft 484 kts
2026-04-14 09:10 44.18813 11.61238 29981 ft 482 kts
2026-04-14 09:10 44.25522 11.61268 29978 ft 482 kts
2026-04-14 09:11 44.32229 11.61307 29976 ft 482 kts
2026-04-14 09:11 44.38931 11.61332 29973 ft 481 kts 360°
2026-04-14 09:12 44.45627 11.61349 29985 ft 480 kts
2026-04-14 09:12 44.52302 11.61379 29983 ft 479 kts
2026-04-14 09:13 44.58967 11.61417 29983 ft 479 kts
2026-04-14 09:13 44.65630 11.61447 29973 ft 478 kts
2026-04-14 09:14 44.72282 11.61472 29975 ft 478 kts
2026-04-14 09:14 44.78934 11.61492 29977 ft 478 kts
2026-04-14 09:15 44.84464 11.61509 29973 ft 478 kts
2026-04-14 09:15 44.91130 11.61546 29972 ft 479 kts
2026-04-14 09:16 44.97797 11.61582 29974 ft 479 kts
2026-04-14 09:16 45.04478 11.61608 29970 ft 480 kts
2026-04-14 09:17 45.11160 11.61632 29973 ft 481 kts
2026-04-14 09:17 45.17847 11.61655 29973 ft 480 kts
2026-04-14 09:18 45.24535 11.61689 29979 ft 480 kts
2026-04-14 09:18 45.31224 11.61721 29985 ft 481 kts
2026-04-14 09:19 45.37907 11.61744 29987 ft 480 kts
2026-04-14 09:19 45.44592 11.61762 29985 ft 481 kts
2026-04-14 09:20 45.51290 11.61787 29982 ft 481 kts
2026-04-14 09:20 45.57985 11.61829 29976 ft 481 kts
2026-04-14 09:21 45.64682 11.61864 29976 ft 482 kts
2026-04-14 09:21 45.71390 11.61886 29976 ft 482 kts
2026-04-14 09:22 45.78093 11.61915 29978 ft 482 kts
2026-04-14 09:22 45.84803 11.61944 29971 ft 483 kts
2026-04-14 09:23 45.91528 11.61974 29970 ft 483 kts
2026-04-14 09:23 45.98258 11.62002 29966 ft 484 kts
2026-04-14 09:24 46.05000 11.62027 29964 ft 484 kts
2026-04-14 09:24 46.11744 11.62067 29968 ft 485 kts
2026-04-14 09:25 46.18496 11.61921 29975 ft 486 kts 353°
2026-04-14 09:25 46.25130 11.60090 29978 ft 486 kts 348°
2026-04-14 09:26 46.31762 11.58148 29970 ft 486 kts 348°
2026-04-14 09:26 46.38349 11.56220 29977 ft 486 kts 348°
2026-04-14 09:27 46.44983 11.54286 30010 ft 486 kts 348°
2026-04-14 09:27 46.51602 11.52343 30011 ft 485 kts 348°
2026-04-14 09:28 46.58219 11.50392 30009 ft 485 kts 348°
2026-04-14 09:28 46.64832 11.48437 30013 ft 485 kts 347°
2026-04-14 09:29 46.71440 11.46472 30006 ft 484 kts 347°
2026-04-14 09:29 46.78013 11.44343 30018 ft 483 kts 346°
2026-04-14 09:30 46.84565 11.42125 30031 ft 484 kts 346°
2026-04-14 09:30 46.91126 11.39926 30041 ft 484 kts 346°
2026-04-14 09:31 46.97712 11.37871 30038 ft 485 kts 352°
2026-04-14 09:31 47.04464 11.37581 30062 ft 486 kts 359°
2026-04-14 09:32 47.11231 11.37526 30114 ft 486 kts 359°
2026-04-14 09:33 47.21382 11.37450 30123 ft 487 kts 359°
2026-04-14 09:33 47.28159 11.37379 30128 ft 487 kts 358°
2026-04-14 09:34 47.34948 11.37303 30122 ft 488 kts 358°
2026-04-14 09:34 47.41745 11.37235 30118 ft 488 kts 358°
2026-04-14 09:35 47.48535 11.37181 30117 ft 488 kts 358°
2026-04-14 09:35 47.55330 11.37118 30126 ft 488 kts 358°
2026-04-14 09:36 47.62133 11.37041 30147 ft 489 kts 358°
2026-04-14 09:36 47.68942 11.36973 30139 ft 490 kts 358°
2026-04-14 09:37 47.75756 11.36900 30147 ft 490 kts 358°
2026-04-14 09:37 47.82570 11.36833 30147 ft 490 kts 358°
2026-04-14 09:38 47.89352 11.36268 30163 ft 488 kts 352°
2026-04-14 09:38 47.96103 11.35269 30160 ft 487 kts 352°
2026-04-14 09:39 48.02840 11.34255 30160 ft 486 kts 352°
2026-04-14 09:39 48.09528 11.33257 30164 ft 486 kts 352°
2026-04-14 09:40 48.16259 11.32256 30160 ft 486 kts 352°
2026-04-14 09:40 48.22981 11.31251 30160 ft 485 kts 352°
2026-04-14 09:41 48.29701 11.30247 30149 ft 485 kts 352°
2026-04-14 09:41 48.36415 11.29247 30143 ft 485 kts 352°
2026-04-14 09:42 48.43123 11.28238 30141 ft 485 kts 352°
2026-04-14 09:42 48.49835 11.27221 30145 ft 484 kts 353°
2026-04-14 09:43 48.56537 11.26204 30160 ft 484 kts 353°
2026-04-14 09:43 48.63230 11.25181 30153 ft 483 kts 353°
2026-04-14 09:44 48.69919 11.24155 30154 ft 483 kts 353°
2026-04-14 09:44 48.76606 11.23129 30160 ft 483 kts 353°
2026-04-14 09:45 48.83158 11.21197 30151 ft 479 kts 337°
2026-04-14 09:45 48.86136 11.18976 30151 ft 476 kts 326°
2026-04-14 09:45 48.88774 11.15978 30147 ft 472 kts 316°
2026-04-14 09:46 48.93617 11.09225 30146 ft 473 kts 315°
2026-04-14 09:46 48.98464 11.02446 30150 ft 472 kts 315°
2026-04-14 09:47 49.03279 10.95694 30114 ft 463 kts 315°
2026-04-14 09:47 49.05610 10.92415 29821 ft 448 kts 315°
2026-04-14 09:47 49.07870 10.89233 29533 ft 436 kts 315°
2026-04-14 09:47 49.10065 10.86138 29247 ft 424 kts 315°
2026-04-14 09:48 49.12199 10.83123 28981 ft 412 kts 315°
2026-04-14 09:48 49.14276 10.80186 28699 ft 403 kts 315°
2026-04-14 09:48 49.16315 10.77292 28435 ft 396 kts 315°
2026-04-14 09:48 49.18318 10.74447 28022 ft 390 kts 315°
2026-04-14 09:49 49.20285 10.71635 27615 ft 384 kts 314°
2026-04-14 09:49 49.22176 10.68784 27189 ft 379 kts 313°
2026-04-14 09:49 49.24000 10.65913 26794 ft 373 kts 311°
2026-04-14 09:49 49.25775 10.63059 26420 ft 368 kts 311°
2026-04-14 09:50 49.27526 10.60233 26025 ft 363 kts 312°
2026-04-14 09:50 49.29256 10.57451 25655 ft 358 kts 311°
2026-04-14 09:50 49.30969 10.54715 25288 ft 353 kts 313°
2026-04-14 09:50 49.32665 10.52024 24904 ft 348 kts 313°
2026-04-14 09:51 49.34344 10.49368 24533 ft 346 kts 312°
2026-04-14 09:51 49.35991 10.46688 24197 ft 347 kts 308°
2026-04-14 09:51 49.37451 10.43623 24113 ft 362 kts 303°
2026-04-14 09:51 49.38903 10.40425 24037 ft 367 kts 303°
2026-04-14 09:52 49.40369 10.37209 23914 ft 369 kts 303°
2026-04-14 09:52 49.41840 10.33991 23663 ft 367 kts 303°
2026-04-14 09:52 49.43287 10.30826 23403 ft 368 kts 304°
2026-04-14 09:52 49.44790 10.27533 23128 ft 381 kts 304°
2026-04-14 09:53 49.46320 10.24176 22853 ft 384 kts 304°
2026-04-14 09:53 49.47854 10.20811 22577 ft 384 kts 304°
2026-04-14 09:53 49.49385 10.17445 22307 ft 383 kts 304°
2026-04-14 09:53 49.50905 10.14086 22039 ft 382 kts 303°
2026-04-14 09:54 49.52419 10.10730 21765 ft 381 kts 303°
2026-04-14 09:54 49.53927 10.07387 21500 ft 379 kts 303°
2026-04-14 09:54 49.55429 10.04052 21266 ft 378 kts 303°
2026-04-14 09:54 49.56927 10.00728 21005 ft 377 kts 303°
2026-04-14 09:55 49.58424 9.97415 20749 ft 376 kts 303°
2026-04-14 09:55 49.59916 9.94101 20501 ft 375 kts 303°
2026-04-14 09:55 49.61400 9.90795 20254 ft 374 kts 303°
2026-04-14 09:55 49.62876 9.87505 20006 ft 372 kts 303°
2026-04-14 09:56 49.64345 9.84226 19758 ft 371 kts 303°
2026-04-14 09:56 49.65808 9.80955 19514 ft 370 kts 303°
2026-04-14 09:56 49.67264 9.77693 19277 ft 369 kts 303°
2026-04-14 09:56 49.68716 9.74437 19035 ft 367 kts 303°
2026-04-14 09:57 49.70159 9.71192 18801 ft 366 kts 302°
2026-04-14 09:57 49.71112 9.69045 18645 ft 366 kts 302°
2026-04-14 09:57 49.72551 9.65802 18403 ft 364 kts 302°
2026-04-14 09:57 49.73982 9.62576 18084 ft 363 kts 302°
2026-04-14 09:58 49.75403 9.59372 17622 ft 360 kts 302°
2026-04-14 09:58 49.76815 9.56192 17173 ft 357 kts 302°
2026-04-14 09:58 49.78215 9.53035 16728 ft 354 kts 302°
2026-04-14 09:58 49.79597 9.49911 16285 ft 350 kts 302°
2026-04-14 09:59 49.80964 9.46812 15840 ft 347 kts 302°
2026-04-14 09:59 49.82319 9.43731 15413 ft 345 kts 302°
2026-04-14 09:59 49.83666 9.40670 14984 ft 343 kts 302°
2026-04-14 09:59 49.85005 9.37629 14556 ft 340 kts 302°
2026-04-14 10:00 49.86205 9.34496 14126 ft 336 kts 292°
2026-04-14 10:00 49.86953 9.31094 13776 ft 334 kts 285°
2026-04-14 10:00 49.87604 9.27647 13447 ft 332 kts 285°
2026-04-14 10:00 49.88258 9.24227 13116 ft 330 kts 285°
2026-04-14 10:01 49.88912 9.20820 12786 ft 328 kts 285°
2026-04-14 10:01 49.89561 9.17441 12457 ft 326 kts 285°
2026-04-14 10:01 49.90204 9.14067 12125 ft 326 kts 285°
2026-04-14 10:01 49.90840 9.10702 11809 ft 324 kts 285°
2026-04-14 10:02 49.91471 9.07356 11481 ft 322 kts 285°
2026-04-14 10:02 49.92099 9.04023 11160 ft 321 kts 285°
2026-04-14 10:02 49.92730 9.00705 11016 ft 321 kts 285°
2026-04-14 10:02 49.93366 8.97385 10892 ft 320 kts 285°
2026-04-14 10:03 49.94000 8.94076 10712 ft 320 kts 285°
2026-04-14 10:03 49.94617 8.90855 10465 ft 310 kts 285°
2026-04-14 10:03 49.95227 8.87661 10219 ft 300 kts 285°
2026-04-14 10:03 49.95810 8.84605 9976 ft 290 kts 285°
2026-04-14 10:04 49.96372 8.81644 9707 ft 282 kts 285°
2026-04-14 10:04 49.96921 8.78746 9441 ft 278 kts 286°
2026-04-14 10:04 49.97466 8.75863 9179 ft 278 kts 286°
2026-04-14 10:04 49.97839 8.72952 8919 ft 274 kts 274°
2026-04-14 10:05 49.97729 8.70005 8660 ft 275 kts 259°
2026-04-14 10:05 49.97168 8.67176 8398 ft 274 kts 250°
2026-04-14 10:05 49.96496 8.64399 8222 ft 275 kts 250°
2026-04-14 10:05 49.95833 8.61650 8191 ft 275 kts 251°
2026-04-14 10:06 49.95162 8.58873 8192 ft 275 kts 250°
2026-04-14 10:06 49.94491 8.56092 8190 ft 274 kts 251°
2026-04-14 10:06 49.93821 8.53316 8191 ft 275 kts 250°
2026-04-14 10:06 49.93150 8.50531 8194 ft 275 kts 251°
2026-04-14 10:07 49.92481 8.47752 8187 ft 275 kts 251°
2026-04-14 10:07 49.91808 8.44959 7943 ft 278 kts 251°
2026-04-14 10:07 49.91135 8.42168 7563 ft 275 kts 250°
2026-04-14 10:07 49.90467 8.39407 7187 ft 273 kts 251°
2026-04-14 10:08 49.89802 8.36660 6823 ft 271 kts 251°
2026-04-14 10:08 49.89140 8.33930 6452 ft 271 kts 251°
2026-04-14 10:08 49.88476 8.31194 6055 ft 271 kts 251°
2026-04-14 10:08 49.87814 8.28466 5660 ft 270 kts 251°
2026-04-14 10:09 49.87155 8.25747 5277 ft 268 kts 252°
2026-04-14 10:09 49.86500 8.23049 4889 ft 267 kts 251°
2026-04-14 10:09 49.85847 8.20358 4485 ft 266 kts 252°
2026-04-14 10:09 49.85193 8.17674 4098 ft 266 kts 251°
2026-04-14 10:10 49.84584 8.14988 3990 ft 265 kts 260°
2026-04-14 10:10 49.84623 8.12185 4000 ft 260 kts 289°
2026-04-14 10:10 49.85494 8.09882 3995 ft 239 kts 320°
2026-04-14 10:10 49.86872 8.08743 4001 ft 217 kts 352°
2026-04-14 10:11 49.88301 8.09008 4002 ft 208 kts 27°
2026-04-14 10:11 49.89458 8.10343 4003 ft 208 kts 41°
2026-04-14 10:11 49.90502 8.11903 4001 ft 209 kts 43°
2026-04-14 10:11 49.91533 8.13493 4002 ft 209 kts 43°
2026-04-14 10:12 49.92562 8.15096 4005 ft 210 kts 44°
2026-04-14 10:12 49.93588 8.16705 4009 ft 209 kts 45°
2026-04-14 10:12 49.94346 8.18613 4011 ft 210 kts 65°
2026-04-14 10:12 49.94870 8.20739 4015 ft 211 kts 67°
2026-04-14 10:13 49.95384 8.22885 4012 ft 212 kts 66°
2026-04-14 10:13 49.95877 8.24927 4014 ft 196 kts 66°
2026-04-14 10:13 49.96340 8.26840 3935 ft 184 kts 66°
2026-04-14 10:13 49.96787 8.28679 3730 ft 180 kts 65°
2026-04-14 10:14 49.97229 8.30498 3503 ft 180 kts 66°
2026-04-14 10:14 49.97667 8.32306 3260 ft 179 kts 66°
2026-04-14 10:14 49.98106 8.34121 3008 ft 180 kts 67°
2026-04-14 10:14 49.98548 8.35947 2761 ft 181 kts 66°
2026-04-14 10:15 49.98990 8.37779 2507 ft 182 kts 68°
2026-04-14 10:15 49.99435 8.39620 2259 ft 180 kts 67°
2026-04-14 10:15 49.99852 8.41355 2032 ft 162 kts 67°
2026-04-14 10:15 50.00229 8.42923 1806 ft 149 kts 67°
2026-04-14 10:16 50.00579 8.44374 1610 ft 139 kts 66°
2026-04-14 10:16 50.00916 8.45773 1409 ft 137 kts 67°
2026-04-14 10:16 50.01250 8.47154 1212 ft 136 kts 66°
2026-04-14 10:16 50.01584 8.48544 1057 ft 137 kts 66°
2026-04-14 10:17 50.01922 8.49935 859 ft 138 kts 66°
2026-04-14 10:17 50.02264 8.51322 675 ft 138 kts 68°
2026-04-14 10:17 50.02588 8.52711 485 ft 136 kts 68°
2026-04-14 10:17 50.02916 8.54082 355 ft 131 kts 67°
2026-04-14 10:18 50.03376 8.56003 350 ft 51 kts 70°
2026-04-14 10:18 50.03539 8.56372 358 ft 35 kts 39°
2026-04-14 10:18 50.03641 8.56504 359 ft 12 kts 40°
2026-04-14 10:19 50.03666 8.56536 359 ft 0 kts 40°
2026-04-14 10:20 50.03666 8.56537 359 ft 1 kts 40°
2026-04-14 10:20 50.03709 8.56591 355 ft 17 kts 39°
2026-04-14 10:20 50.03809 8.56797 362 ft 27 kts 69°
2026-04-14 10:21 50.03875 8.57072 359 ft 27 kts 70°
2026-04-14 10:21 50.03938 8.57339 365 ft 26 kts 70°
2026-04-14 10:21 50.04001 8.57600 367 ft 26 kts 70°
2026-04-14 10:21 50.04066 8.57871 366 ft 27 kts 69°
2026-04-14 10:22 50.04133 8.58113 369 ft 20 kts 45°
2026-04-14 10:22 50.04266 8.58206 370 ft 22 kts 357°
2026-04-14 10:22 50.04413 8.58130 370 ft 23 kts 340°
2026-04-14 10:22 50.04488 8.58087 368 ft 0 kts 339°
2026-04-14 10:24 50.04529 8.58052 368 ft 18 kts 313°
2026-04-14 10:24 50.04523 8.57923 366 ft 13 kts 246°
2026-04-14 10:24 50.04476 8.57737 365 ft 24 kts 249°
2026-04-14 10:24 50.04414 8.57478 361 ft 27 kts 250°
2026-04-14 10:25 50.04346 8.57192 361 ft 29 kts 250°
2026-04-14 10:25 50.04279 8.56913 361 ft 22 kts 253°
2026-04-14 10:25 50.04348 8.56828 360 ft 15 kts 10°
2026-04-14 10:25 50.04462 8.56858 363 ft 18 kts 11°
2026-04-14 10:26 50.04593 8.56905 363 ft 22 kts 13°
2026-04-14 10:26 50.04738 8.56994 356 ft 23 kts 24°
2026-04-14 10:26 50.04842 8.57079 359 ft 7 kts 65°
2026-04-14 10:26 50.04824 8.57146 363 ft 8 kts 114°
2026-04-14 10:27 50.04814 8.57180 362 ft 0 kts 114°
2026-04-14 10:27 50.04813 8.57185 362 ft 0 kts 115°